Hourly Data Report for January 07, 2017

All times are specified in Local Standard Time (LST). Add 1 hour to adjust for Daylight Saving Time where and when it is observed.

ST LEONARD CS
NEW BRUNSWICK

47°09'28.050" N
67°49'55.014" W
245.00 m
810I001
71019
WIY

Download Data

Hourly Data (January 2017)
Hourly Data Report for January 7, 2017
Temp Definition
°C
Dew Point Temp Definition
°C
Rel Hum Definition
%
Wind Dir Definition
10's deg

Wind Spd Definition
km/h
Visibility Definition
km
Stn Press Definition
kPa
Hmdx Definition


Wind Chill Definition


Weather Definition


TIME
00:00 -17.8 -19.1 89 31 11   98.96   -25 LegendNANA
01:00 -20.1 -21.7 87 33 6   99.01   -25 LegendNANA
02:00 -19.6 -20.8 90 31 10   99.06   -27 LegendNANA
03:00 -19.7 -20.8 91 31 8   99.15   -26 LegendNANA
04:00 -20.4 -21.8 89 35 6   99.22   -25 LegendNANA
05:00 -20.9 -22.0 91 31 5   99.30   -25 LegendNANA
06:00 -24.8 -26.7 84 17 2   99.38   -27 LegendNANA
07:00 -25.8 -27.7 84 15 2   99.44   -28 LegendNANA
08:00 -25.3 -27.3 84 0 1   99.46   -26 LegendNANA
09:00 -23.1 -24.4 89 20 3   99.58   -26 LegendNANA
10:00 -21.9 -23.4 88   0   99.64     LegendNANA
11:00 -17.5 -20.0 81 17 3   99.68   -20 LegendNANA
12:00 -17.7 -21.0 75 29 4   99.62   -21 LegendNANA
13:00 -15.2 -19.9 67 4 2   99.55   -17 LegendNANA
14:00 -13.6 -19.2 62   0   99.57     LegendNANA
15:00 -15.0 -18.8 73 2 3   99.43   -17 LegendNANA
16:00 -14.7 -18.2 75 34 3   99.41   -17 LegendNANA
17:00 -15.5 -18.2 80 17 3   99.35   -18 LegendNANA
18:00 -16.8 -18.8 84 5 2   99.35   -18 LegendNANA
19:00 -16.9 -18.8 85 9 4   99.38   -20 LegendNANA
20:00 -17.6 -19.1 88 12 3   99.41   -20 LegendNANA
21:00 -17.3 -18.7 89 3 6   99.30   -22 LegendNANA
22:00 -16.5 -18.3 86 1 10   99.06   -23 LegendNANA
23:00 -16.4 -18.4 85 36 7   99.03   -21 LegendNANA

Notes on Data Quality.

Legend

  • E = Estimated
  • M = Missing
  • NA = Not Available
  • ‡ = Partner data that is not subject to review by the National Climate Archives
Date modified: